Location: Unspecified
(38.7273°N, 77.0677°W)
Time: 20:38:29
(UTC-04:00)

ISS - Pass Details

Date: 25 June 2021
Orbit: 419 x 421 km, 51.6° (Epoch: 30 July)

Event Time Altitude Azimuth Distance (km) Brightness Sun altitude
Exits shadow 04:25:43 10° 171° (S) 1,499 -1.3 -13.0°
Maximum altitude 04:27:55 16° 130° (SE) 1,170 -1.4 -12.7°
Drops below altitude 10° 04:30:06 10° 89° (E) 1,496 -0.3 -12.4°
Sets 04:32:44 0° 67° (ENE) 2,364 1.5 -12.0°
